Home   Weather   Västerås   Past weeks

Flag for Sweden Past Weather in Västerås, Sweden — Yesterday and Last 2 Weeks

Now
59 °F

Fog.


Feels Like: 60 °F
Forecast: 55 / 67 °F
Wind: 3 mph from Southeast

Location: Vasteras / Hasslo

Current Time: Aug 19, 2017 at 12:14:25 am

Latest Report: Aug 18, 2017 at 11:50 pm


Visibility: 0 mi

Pressure: 29.80 "Hg

Humidity: 94%

Dew Point: 57 °F

Location of VästeråsLocation

Past Weather in Västerås — Graph

°F

Västerås Temperature Yesterday

Maximum temperature yesterday: 70 °F (at 4:20 pm)
Minimum temperature yesterday: 50 °F (at 1:50 am)
Average temperature yesterday: 61 °F

High & Low Weather Summary for the Past Weeks

 TemperatureHumidityPressure
High77 °F (Aug 11, 2:50 pm)94% (Aug 4, 12:20 am)30.24 "Hg (Aug 4, 12:20 am)
Low43 °F (Aug 13, 11:50 pm)24% (Aug 11, 7:20 pm)29.39 "Hg (Aug 4, 4:20 pm)
Average63 °F71%29.88 "Hg
* Reported Aug 3 11:20 pm — Aug 18 11:20 pm, Västerås. Weather by CustomWeather, © 2017

Note: Actual official high and low records may vary slightly from our data, if they occured in-between our weather recording intervals... More about our weather records

Advertising

Västerås Weather History for the Previous 24 Hours

Scroll right to see more
 ConditionsComfort  
Time TempWeatherWind HumidityBarometerVisibility
11:20 pm
Fri, Aug 18
59 °FFog.3 mph94%29.80 "Hg3 mi
10:50 pm59 °FFog.3 mph94%29.80 "Hg6 mi
10:20 pm61 °FCool.3 mph94%29.80 "HgN/A
9:50 pm61 °FPassing clouds.5 mph88%29.80 "HgN/A
9:20 pm63 °FPassing clouds.6 mph88%29.80 "HgN/A
8:50 pm63 °FPassing clouds.7 mph88%29.80 "HgN/A
8:20 pm64 °FBroken clouds.6 mph83%29.80 "HgN/A
7:50 pm66 °FPassing clouds.7 mph78%29.80 "HgN/A
7:20 pm66 °FPassing clouds.8 mph78%29.80 "HgN/A
6:50 pm68 °FPassing clouds.8 mph73%29.80 "HgN/A
6:20 pm68 °FPassing clouds.8 mph73%29.80 "HgN/A
5:50 pm70 °FPassing clouds.7 mph69%29.80 "HgN/A
5:20 pm70 °FScattered clouds.6 mph69%29.80 "HgN/A
4:50 pm70 °FPassing clouds.7 mph69%29.80 "HgN/A
4:20 pm70 °FPassing clouds.6 mph64%29.80 "HgN/A
3:50 pm68 °FScattered clouds.6 mph69%29.80 "HgN/A
3:20 pm68 °FBroken clouds.8 mph78%29.83 "HgN/A
2:50 pm66 °FBroken clouds.7 mph83%29.83 "HgN/A
2:20 pm64 °FBroken clouds.10 mph83%29.83 "HgN/A
1:50 pm63 °FPartly sunny.9 mph88%29.83 "HgN/A
1:20 pm63 °FBroken clouds.10 mph88%29.83 "HgN/A
12:50 pm63 °FPartly sunny.9 mph88%29.83 "HgN/A
12:20 pm63 °FPartly sunny.9 mph88%29.83 "HgN/A
11:50 am63 °FPartly sunny.12 mph88%29.83 "HgN/A
11:20 am61 °FDrizzle. Partly sunny.12 mph94%29.83 "Hg3 mi
10:50 am61 °FDrizzle. Partly sunny.10 mph94%29.83 "Hg5 mi
10:20 am61 °FLight rain. Partly sunny.12 mph94%29.86 "Hg3 mi
9:50 am61 °FLight rain. Partly sunny.12 mph94%29.86 "Hg5 mi
9:20 am61 °FLight rain. Partly sunny.10 mph94%29.86 "HgN/A
8:50 am61 °FDrizzle. Broken clouds.9 mph88%29.86 "HgN/A
8:20 am59 °FDrizzle. Broken clouds.9 mph94%29.86 "Hg6 mi
7:50 am59 °FLight rain. Partly sunny.8 mph94%29.86 "Hg5 mi
7:20 am59 °FLight rain. Cloudy.9 mph88%29.86 "Hg4 mi
6:50 am59 °FDrizzle. Mostly cloudy.7 mph88%29.86 "HgN/A
6:20 am59 °FBroken clouds.5 mph88%29.89 "HgN/A
5:50 am59 °FPassing clouds.5 mph88%29.89 "HgN/A
5:20 am57 °FCool.6 mph94%29.89 "HgN/A
4:50 am57 °FCool.3 mph94%29.89 "HgN/A
4:20 am57 °FCool.5 mph94%29.89 "HgN/A
3:50 am57 °FCool.6 mph88%29.92 "HgN/A
3:20 am54 °FCool.2 mph82%29.92 "HgN/A
2:50 am54 °FCool.2 mph88%29.92 "Hg4 mi
2:20 am52 °FCool.3 mph88%29.92 "HgN/A
1:50 am50 °FCool.5 mph88%29.95 "HgN/A
1:20 am54 °FCool.2 mph77%29.95 "HgN/A
12:50 am55 °FCool.3 mph77%29.95 "HgN/A
12:20 am57 °FCool.3 mph72%29.98 "HgN/A
Weather by CustomWeather, © 2017

See weather overviewHow to use our weather pages